Year,Month,Day,Hour,Minute,Value (Times are PST for temperature in C)
2015,06,18,00,00,13.80
2015,06,18,00,01,13.80
2015,06,18,00,02,13.80
2015,06,18,00,03,13.80
2015,06,18,00,04,13.80
2015,06,18,00,05,13.80
2015,06,18,00,06,13.80
2015,06,18,00,07,13.80
2015,06,18,00,08,13.70
2015,06,18,00,09,13.70
2015,06,18,00,10,13.70
2015,06,18,00,11,13.70
2015,06,18,00,12,13.70
2015,06,18,00,13,13.70
2015,06,18,00,14,13.70
2015,06,18,00,15,13.70
2015,06,18,00,16,13.70
2015,06,18,00,17,13.70
2015,06,18,00,18,13.70
2015,06,18,00,19,13.70
2015,06,18,00,20,13.60
2015,06,18,00,21,13.60
2015,06,18,00,22,13.60
2015,06,18,00,23,13.60
2015,06,18,00,24,13.60
2015,06,18,00,25,13.60
2015,06,18,00,26,13.60
2015,06,18,00,27,13.60
2015,06,18,00,28,13.60
2015,06,18,00,29,13.60
2015,06,18,00,30,13.60
2015,06,18,00,31,13.60
2015,06,18,00,32,13.60
2015,06,18,00,33,13.60
2015,06,18,00,34,13.60
2015,06,18,00,35,13.60
2015,06,18,00,36,13.60
2015,06,18,00,37,13.60
2015,06,18,00,38,13.60
2015,06,18,00,39,13.60
2015,06,18,00,40,13.60
2015,06,18,00,41,13.60
2015,06,18,00,42,13.50
2015,06,18,00,43,13.50
2015,06,18,00,44,13.50
2015,06,18,00,45,13.50
2015,06,18,00,46,13.50
2015,06,18,00,47,13.50
2015,06,18,00,48,13.50
2015,06,18,00,49,13.40
2015,06,18,00,50,13.40
2015,06,18,00,51,13.40
2015,06,18,00,52,13.40
2015,06,18,00,53,13.40
2015,06,18,00,54,13.40
2015,06,18,00,55,13.40
2015,06,18,00,56,13.50
2015,06,18,00,57,13.40
2015,06,18,00,58,13.40
2015,06,18,00,59,13.40
2015,06,18,01,00,13.40
2015,06,18,01,01,13.40
2015,06,18,01,02,13.40
2015,06,18,01,03,13.40
2015,06,18,01,04,13.40
2015,06,18,01,05,13.40
2015,06,18,01,06,13.40
2015,06,18,01,07,13.40
2015,06,18,01,08,13.40
2015,06,18,01,09,13.50
2015,06,18,01,10,13.50
2015,06,18,01,11,13.50
2015,06,18,01,12,13.50
2015,06,18,01,13,13.50
2015,06,18,01,14,13.50
2015,06,18,01,15,13.50
2015,06,18,01,16,13.50
2015,06,18,01,17,13.50
2015,06,18,01,18,13.50
2015,06,18,01,19,13.50
2015,06,18,01,20,13.50
2015,06,18,01,21,13.50
2015,06,18,01,22,13.50
2015,06,18,01,23,13.50
2015,06,18,01,24,13.50
2015,06,18,01,25,13.50
2015,06,18,01,26,13.50
2015,06,18,01,27,13.50
2015,06,18,01,28,13.50
2015,06,18,01,29,13.50
2015,06,18,01,30,13.50
2015,06,18,01,31,13.40
2015,06,18,01,32,13.40
2015,06,18,01,33,13.40
2015,06,18,01,34,13.40
2015,06,18,01,35,13.40
2015,06,18,01,36,13.40
2015,06,18,01,37,13.40
2015,06,18,01,38,13.40
2015,06,18,01,39,13.40
2015,06,18,01,40,13.40
2015,06,18,01,41,13.40
2015,06,18,01,42,13.40
2015,06,18,01,43,13.50
2015,06,18,01,44,13.40
2015,06,18,01,45,13.50
2015,06,18,01,46,13.50
2015,06,18,01,47,13.50
2015,06,18,01,48,13.50
2015,06,18,01,49,13.50
2015,06,18,01,50,13.50
2015,06,18,01,51,13.50
2015,06,18,01,52,13.50
2015,06,18,01,53,13.50
2015,06,18,01,54,13.50
2015,06,18,01,55,13.50
2015,06,18,01,56,13.50
2015,06,18,01,57,13.50
2015,06,18,01,58,13.50
2015,06,18,01,59,13.50
2015,06,18,02,00,13.50
2015,06,18,02,01,13.50
2015,06,18,02,02,13.60
2015,06,18,02,03,13.60
2015,06,18,02,04,13.60
2015,06,18,02,05,13.60
2015,06,18,02,06,13.60
2015,06,18,02,07,13.60
2015,06,18,02,08,13.50
2015,06,18,02,09,13.60
2015,06,18,02,10,13.50
2015,06,18,02,11,13.50
2015,06,18,02,12,13.50
2015,06,18,02,13,13.50
2015,06,18,02,14,13.50
2015,06,18,02,15,13.60
2015,06,18,02,16,13.50
2015,06,18,02,17,13.50
2015,06,18,02,18,13.50
2015,06,18,02,19,13.50
2015,06,18,02,20,13.50
2015,06,18,02,21,13.50
2015,06,18,02,22,13.50
2015,06,18,02,23,13.40
2015,06,18,02,24,13.40
2015,06,18,02,25,13.40
2015,06,18,02,26,13.40
2015,06,18,02,27,13.40
2015,06,18,02,28,13.40
2015,06,18,02,29,13.40
2015,06,18,02,30,13.40
2015,06,18,02,31,13.30
2015,06,18,02,32,13.30
2015,06,18,02,33,13.30
2015,06,18,02,34,13.30
2015,06,18,02,35,13.30
2015,06,18,02,36,13.30
2015,06,18,02,37,13.30
2015,06,18,02,38,13.30
2015,06,18,02,39,13.30
2015,06,18,02,40,13.30
2015,06,18,02,41,13.20
2015,06,18,02,42,13.20
2015,06,18,02,43,13.20
2015,06,18,02,44,13.20
2015,06,18,02,45,13.20
2015,06,18,02,46,13.20
2015,06,18,02,47,13.20
2015,06,18,02,48,13.20
2015,06,18,02,49,13.20
2015,06,18,02,50,13.10
2015,06,18,02,51,13.10
2015,06,18,02,52,13.10
2015,06,18,02,53,13.10
2015,06,18,02,54,13.10
2015,06,18,02,55,13.10
2015,06,18,02,56,13.10
2015,06,18,02,57,13.10
2015,06,18,02,58,13.10
2015,06,18,02,59,13.10
2015,06,18,03,00,13.10
2015,06,18,03,01,13.10
2015,06,18,03,02,13.10
2015,06,18,03,06,13.10
2015,06,18,03,07,13.10
2015,06,18,03,08,13.10
2015,06,18,03,09,13.10
2015,06,18,03,10,13.10
2015,06,18,03,11,13.10
2015,06,18,03,12,13.10
2015,06,18,03,13,13.10
2015,06,18,03,14,13.10
2015,06,18,03,15,13.10
2015,06,18,03,16,13.10
2015,06,18,03,17,13.00
2015,06,18,03,18,13.00
2015,06,18,03,19,13.00
2015,06,18,03,20,13.00
2015,06,18,03,21,13.00
2015,06,18,03,22,12.90
2015,06,18,03,23,12.90
2015,06,18,03,24,12.90
2015,06,18,03,25,12.90
2015,06,18,03,26,12.90
2015,06,18,03,27,12.90
2015,06,18,03,28,12.80
2015,06,18,03,29,12.80
2015,06,18,03,30,12.80
2015,06,18,03,31,12.80
2015,06,18,03,32,12.80
2015,06,18,03,33,12.80
2015,06,18,03,34,12.80
2015,06,18,03,35,12.80
2015,06,18,03,36,12.80
2015,06,18,03,37,12.80
2015,06,18,03,38,12.80
2015,06,18,03,39,12.80
2015,06,18,03,40,12.70
2015,06,18,03,41,12.70
2015,06,18,03,42,12.70
2015,06,18,03,43,12.70
2015,06,18,03,44,12.70
2015,06,18,03,45,12.70
2015,06,18,03,46,12.70
2015,06,18,03,47,12.70
2015,06,18,03,48,12.70
2015,06,18,03,49,12.70
2015,06,18,03,50,12.70
2015,06,18,03,51,12.70
2015,06,18,03,52,12.80
2015,06,18,03,53,12.80
2015,06,18,03,54,12.80
2015,06,18,03,55,12.80
2015,06,18,03,56,12.80
2015,06,18,03,57,12.80
2015,06,18,03,58,12.80
2015,06,18,03,59,12.80
2015,06,18,04,00,12.80
2015,06,18,04,01,12.80
2015,06,18,04,02,12.80
2015,06,18,04,03,12.80
2015,06,18,04,04,12.80
2015,06,18,04,05,12.80
2015,06,18,04,06,12.80
2015,06,18,04,07,12.70
2015,06,18,04,08,12.70
2015,06,18,04,09,12.70
2015,06,18,04,10,12.70
2015,06,18,04,11,12.70
2015,06,18,04,12,12.70
2015,06,18,04,13,12.70
2015,06,18,04,14,12.70
2015,06,18,04,15,12.70
2015,06,18,04,16,12.70
2015,06,18,04,17,12.60
2015,06,18,04,18,12.60
2015,06,18,04,19,12.60
2015,06,18,04,20,12.60
2015,06,18,04,21,12.60
2015,06,18,04,22,12.60
2015,06,18,04,23,12.60
2015,06,18,04,24,12.60
2015,06,18,04,25,12.60
2015,06,18,04,26,12.60
2015,06,18,04,27,12.60
2015,06,18,04,28,12.60
2015,06,18,04,29,12.60
2015,06,18,04,30,12.60
2015,06,18,04,31,12.50
2015,06,18,04,32,12.60
2015,06,18,04,33,12.50
2015,06,18,04,34,12.50
2015,06,18,04,35,12.50
2015,06,18,04,36,12.50
2015,06,18,04,37,12.50
2015,06,18,04,38,12.40
2015,06,18,04,39,12.40
2015,06,18,04,40,12.40
2015,06,18,04,41,12.40
2015,06,18,04,42,12.40
2015,06,18,04,43,12.30
2015,06,18,04,44,12.30
2015,06,18,04,45,12.30
2015,06,18,04,46,12.30
2015,06,18,04,47,12.30
2015,06,18,04,48,12.20
2015,06,18,04,49,12.20
2015,06,18,04,50,12.20
2015,06,18,04,51,12.20
2015,06,18,04,52,12.20
2015,06,18,04,53,12.20
2015,06,18,04,54,12.20
2015,06,18,04,55,12.20
2015,06,18,04,56,12.20
2015,06,18,04,57,12.10
2015,06,18,04,58,12.10
2015,06,18,04,59,12.10
2015,06,18,05,00,12.10
2015,06,18,05,01,12.10
2015,06,18,05,02,12.10
2015,06,18,05,03,12.10
2015,06,18,05,04,12.10
2015,06,18,05,05,12.10
2015,06,18,05,06,12.00
2015,06,18,05,07,12.00
2015,06,18,05,08,12.00
2015,06,18,05,09,12.00
2015,06,18,05,10,11.90
2015,06,18,05,11,11.90
2015,06,18,05,12,11.90
2015,06,18,05,13,11.90
2015,06,18,05,14,11.90
2015,06,18,05,15,11.90
2015,06,18,05,16,11.90
2015,06,18,05,17,11.80
2015,06,18,05,18,11.80
2015,06,18,05,19,11.80
2015,06,18,05,20,11.80
2015,06,18,05,21,11.80
2015,06,18,05,22,11.80
2015,06,18,05,23,11.80
2015,06,18,05,24,11.80
2015,06,18,05,25,11.80
2015,06,18,05,26,11.80
2015,06,18,05,27,11.80
2015,06,18,05,28,11.80
2015,06,18,05,29,11.80
2015,06,18,05,30,11.80
2015,06,18,05,31,11.80
2015,06,18,05,32,11.80
2015,06,18,05,33,11.80
2015,06,18,05,34,11.80
2015,06,18,05,35,11.80
2015,06,18,05,36,11.80
2015,06,18,05,37,11.80
2015,06,18,05,38,11.80
2015,06,18,05,39,11.80
2015,06,18,05,40,11.80
2015,06,18,05,41,11.80
2015,06,18,05,42,11.80
2015,06,18,05,43,11.80
2015,06,18,05,44,11.80
2015,06,18,05,45,11.80
2015,06,18,05,46,11.80
2015,06,18,05,47,11.80
2015,06,18,05,48,11.80
2015,06,18,05,49,11.80
2015,06,18,05,50,11.80
2015,06,18,05,51,11.80
2015,06,18,05,52,11.80
2015,06,18,05,53,11.90
2015,06,18,05,54,11.90
2015,06,18,05,55,11.90
2015,06,18,05,56,12.00
2015,06,18,05,57,12.00
2015,06,18,05,58,12.00
2015,06,18,05,59,12.10
2015,06,18,06,00,12.10
2015,06,18,06,01,12.10
2015,06,18,06,02,12.10
2015,06,18,06,03,12.10
2015,06,18,06,04,12.20
2015,06,18,06,05,12.20
2015,06,18,06,06,12.20
2015,06,18,06,07,12.30
2015,06,18,06,08,12.30
2015,06,18,06,09,12.30
2015,06,18,06,10,12.30
2015,06,18,06,11,12.30
2015,06,18,06,12,12.40
2015,06,18,06,13,12.40
2015,06,18,06,14,12.40
2015,06,18,06,15,12.40
2015,06,18,06,16,12.40
2015,06,18,06,17,12.50
2015,06,18,06,18,12.50
2015,06,18,06,19,12.50
2015,06,18,06,20,12.60
2015,06,18,06,21,12.60
2015,06,18,06,22,12.60
2015,06,18,06,23,12.60
2015,06,18,06,24,12.70
2015,06,18,06,25,12.70
2015,06,18,06,26,12.70
2015,06,18,06,27,12.70
2015,06,18,06,28,12.70
2015,06,18,06,29,12.80
2015,06,18,06,30,12.80
2015,06,18,06,31,12.80
2015,06,18,06,32,12.90
2015,06,18,06,33,12.90
2015,06,18,06,34,12.90
2015,06,18,06,35,13.00
2015,06,18,06,36,13.00
2015,06,18,06,37,13.10
2015,06,18,06,38,13.10
2015,06,18,06,39,13.10
2015,06,18,06,40,13.20
2015,06,18,06,41,13.20
2015,06,18,06,42,13.20
2015,06,18,06,43,13.30
2015,06,18,06,44,13.30
2015,06,18,06,45,13.30
2015,06,18,06,46,13.30
2015,06,18,06,47,13.40
2015,06,18,06,48,13.40
2015,06,18,06,49,13.40
2015,06,18,06,50,13.50
2015,06,18,06,51,13.50
2015,06,18,06,52,13.60
2015,06,18,06,53,13.60
2015,06,18,06,54,13.60
2015,06,18,06,55,13.70
2015,06,18,06,56,13.70
2015,06,18,06,57,13.70
2015,06,18,06,58,13.80
2015,06,18,06,59,13.80
2015,06,18,07,00,13.80
2015,06,18,07,01,13.80
2015,06,18,07,02,13.90
2015,06,18,07,03,13.90
2015,06,18,07,04,13.90
2015,06,18,07,05,14.00
2015,06,18,07,06,14.00
2015,06,18,07,07,14.00
2015,06,18,07,08,14.10
2015,06,18,07,09,14.10
2015,06,18,07,10,14.10
2015,06,18,07,11,14.10
2015,06,18,07,12,14.10
2015,06,18,07,13,14.10
2015,06,18,07,14,14.10
2015,06,18,07,15,14.20
2015,06,18,07,16,14.20
2015,06,18,07,17,14.20
2015,06,18,07,18,14.20
2015,06,18,07,19,14.20
2015,06,18,07,20,14.20
2015,06,18,07,21,14.20
2015,06,18,07,22,14.20
2015,06,18,07,23,14.20
2015,06,18,07,24,14.20
2015,06,18,07,25,14.30
2015,06,18,07,26,14.30
2015,06,18,07,27,14.30
2015,06,18,07,28,14.30
2015,06,18,07,29,14.30
2015,06,18,07,30,14.30
2015,06,18,07,31,14.40
2015,06,18,07,32,14.40
2015,06,18,07,33,14.40
2015,06,18,07,34,14.40
2015,06,18,07,35,14.40
2015,06,18,07,36,14.40
2015,06,18,07,37,14.40
2015,06,18,07,38,14.40
2015,06,18,07,39,14.40
2015,06,18,07,40,14.40
2015,06,18,07,41,14.40
2015,06,18,07,42,14.40
2015,06,18,07,43,14.40
2015,06,18,07,44,14.40
2015,06,18,07,45,14.40
2015,06,18,07,46,14.40
2015,06,18,07,47,14.40
2015,06,18,07,48,14.40
2015,06,18,07,49,14.40
2015,06,18,07,50,14.40
2015,06,18,07,51,14.50
2015,06,18,07,52,14.50
2015,06,18,07,53,14.50
2015,06,18,07,54,14.60
2015,06,18,07,55,14.60
2015,06,18,07,56,14.60
2015,06,18,07,57,14.70
2015,06,18,07,58,14.70
2015,06,18,07,59,14.80
2015,06,18,08,00,14.80
2015,06,18,08,01,14.80
2015,06,18,08,02,14.90
2015,06,18,08,03,15.00
2015,06,18,08,04,15.00
2015,06,18,08,05,15.10
2015,06,18,08,06,15.20
2015,06,18,08,07,15.20
2015,06,18,08,08,15.30
2015,06,18,08,09,15.30
2015,06,18,08,10,15.40
2015,06,18,08,11,15.40
2015,06,18,08,12,15.40
2015,06,18,08,13,15.40
2015,06,18,08,14,15.50
2015,06,18,08,15,15.50
2015,06,18,08,16,15.60
2015,06,18,08,17,15.60
2015,06,18,08,18,15.60
2015,06,18,08,19,15.60
2015,06,18,08,20,15.60
2015,06,18,08,21,15.70
2015,06,18,08,22,15.70
2015,06,18,08,23,15.70
2015,06,18,08,24,15.70
2015,06,18,08,25,15.70
2015,06,18,08,26,15.70
2015,06,18,08,27,15.70
2015,06,18,08,28,15.70
2015,06,18,08,29,15.70
2015,06,18,08,30,15.70
2015,06,18,08,31,15.70
2015,06,18,08,32,15.70
2015,06,18,08,33,15.70
2015,06,18,08,34,15.70
2015,06,18,08,35,15.70
2015,06,18,08,36,15.70
2015,06,18,08,37,15.80
2015,06,18,08,38,15.80
2015,06,18,08,39,15.80
2015,06,18,08,40,15.90
2015,06,18,08,41,15.90
2015,06,18,08,42,16.00
2015,06,18,08,43,16.10
2015,06,18,08,44,16.10
2015,06,18,08,45,16.20
2015,06,18,08,46,16.30
2015,06,18,08,47,16.40
2015,06,18,08,48,16.50
2015,06,18,08,49,16.60
2015,06,18,08,50,16.60
2015,06,18,08,51,16.70
2015,06,18,08,52,16.80
2015,06,18,08,53,16.80
2015,06,18,08,54,16.90
2015,06,18,08,55,16.90
2015,06,18,08,56,16.90
2015,06,18,08,57,17.00
2015,06,18,08,58,17.00
2015,06,18,08,59,17.10
2015,06,18,09,00,17.20
2015,06,18,09,01,17.20
2015,06,18,09,02,17.20
2015,06,18,09,03,17.30
2015,06,18,09,04,17.30
2015,06,18,09,05,17.40
2015,06,18,09,06,17.50
2015,06,18,09,07,17.50
2015,06,18,09,08,17.60
2015,06,18,09,09,17.60
2015,06,18,09,10,17.70
2015,06,18,09,11,17.70
2015,06,18,09,12,17.80
2015,06,18,09,13,17.80
2015,06,18,09,14,17.90
2015,06,18,09,15,18.10
2015,06,18,09,16,18.20
2015,06,18,09,17,18.30
2015,06,18,09,18,18.40
2015,06,18,09,19,18.40
2015,06,18,09,20,18.50
2015,06,18,09,21,18.60
2015,06,18,09,22,18.60
2015,06,18,09,23,18.70
2015,06,18,09,24,18.70
2015,06,18,09,25,18.70
2015,06,18,09,26,18.70
2015,06,18,09,27,18.70
2015,06,18,09,28,18.70
2015,06,18,09,29,18.80
2015,06,18,09,30,18.80
2015,06,18,09,31,18.80
2015,06,18,09,32,18.80
2015,06,18,09,33,18.80
2015,06,18,09,34,18.80
2015,06,18,09,35,18.80
2015,06,18,09,36,18.90
2015,06,18,09,37,18.90
2015,06,18,09,38,19.00
2015,06,18,09,39,19.00
2015,06,18,09,40,19.00
2015,06,18,09,41,19.10
2015,06,18,09,42,19.10
2015,06,18,09,43,19.10
2015,06,18,09,44,19.10
2015,06,18,09,45,19.20
2015,06,18,09,46,19.20
2015,06,18,09,47,19.30
2015,06,18,09,48,19.40
2015,06,18,09,49,19.50
2015,06,18,09,50,19.50
2015,06,18,09,51,19.60
2015,06,18,09,52,19.70
2015,06,18,09,53,19.70
2015,06,18,09,54,19.70
2015,06,18,09,55,19.60
2015,06,18,09,56,19.60
2015,06,18,09,57,19.50
2015,06,18,09,58,19.30
2015,06,18,09,59,19.30
2015,06,18,10,00,19.20
2015,06,18,10,01,19.00
2015,06,18,10,02,18.90
2015,06,18,10,03,18.80
2015,06,18,10,04,18.80
2015,06,18,10,05,18.70
2015,06,18,10,06,18.70
2015,06,18,10,07,18.70
2015,06,18,10,08,18.70
2015,06,18,10,09,18.80
2015,06,18,10,10,18.80
2015,06,18,10,11,18.80
2015,06,18,10,12,18.90
2015,06,18,10,13,18.90
2015,06,18,10,14,18.90
2015,06,18,10,15,18.90
2015,06,18,10,16,19.00
2015,06,18,10,17,19.00
2015,06,18,10,18,19.10
2015,06,18,10,19,19.20
2015,06,18,10,20,19.20
2015,06,18,10,21,19.30
2015,06,18,10,22,19.30
2015,06,18,10,23,19.30
2015,06,18,10,24,19.30
2015,06,18,10,25,19.30
2015,06,18,10,26,19.30
2015,06,18,10,27,19.30
2015,06,18,10,28,19.40
2015,06,18,10,29,19.40
2015,06,18,10,30,19.40
2015,06,18,10,31,19.40
2015,06,18,10,32,19.50
2015,06,18,10,33,19.50
2015,06,18,10,34,19.50
2015,06,18,10,35,19.50
2015,06,18,10,36,19.60
2015,06,18,10,37,19.60
2015,06,18,10,38,19.60
2015,06,18,10,39,19.70
2015,06,18,10,40,19.70
2015,06,18,10,41,19.70
2015,06,18,10,42,19.70
2015,06,18,10,43,19.80
2015,06,18,10,44,19.80
2015,06,18,10,45,19.90
2015,06,18,10,46,19.90
2015,06,18,10,47,20.00
2015,06,18,10,48,20.10
2015,06,18,10,49,20.20
2015,06,18,10,50,20.20
2015,06,18,10,51,20.20
2015,06,18,10,52,20.20
2015,06,18,10,53,20.20
2015,06,18,10,54,20.20
2015,06,18,10,55,20.30
2015,06,18,10,56,20.30
2015,06,18,10,57,20.40
2015,06,18,10,58,20.50
2015,06,18,10,59,20.60
2015,06,18,11,00,20.70
2015,06,18,11,01,20.80
2015,06,18,11,02,20.80
2015,06,18,11,03,20.80
2015,06,18,11,04,20.90
2015,06,18,11,05,20.90
2015,06,18,11,06,21.00
2015,06,18,11,07,21.10
2015,06,18,11,08,21.10
2015,06,18,11,09,21.00
2015,06,18,11,10,21.00
2015,06,18,11,11,20.90
2015,06,18,11,12,20.90
2015,06,18,11,13,20.80
2015,06,18,11,14,20.80
2015,06,18,11,15,20.80
2015,06,18,11,16,20.80
2015,06,18,11,17,20.70
2015,06,18,11,18,20.70
2015,06,18,11,19,20.60
2015,06,18,11,20,20.50
2015,06,18,11,21,20.50
2015,06,18,11,22,20.40
2015,06,18,11,23,20.40
2015,06,18,11,24,20.40
2015,06,18,11,25,20.30
2015,06,18,11,26,20.30
2015,06,18,11,27,20.30
2015,06,18,11,28,20.30
2015,06,18,11,29,20.30
2015,06,18,11,30,20.30
2015,06,18,11,31,20.20
2015,06,18,11,32,20.20
2015,06,18,11,33,20.10
2015,06,18,11,34,20.00
2015,06,18,11,35,19.90
2015,06,18,11,36,19.80
2015,06,18,11,37,19.70
2015,06,18,11,38,19.70
2015,06,18,11,39,19.70
2015,06,18,11,40,19.70
2015,06,18,11,41,19.70
2015,06,18,11,42,19.70
2015,06,18,11,43,19.70
2015,06,18,11,44,19.60
2015,06,18,11,45,19.60
2015,06,18,11,46,19.50
2015,06,18,11,47,19.40
2015,06,18,11,48,19.30
2015,06,18,11,49,19.20
2015,06,18,11,50,19.10
2015,06,18,11,51,19.00
2015,06,18,11,52,18.90
2015,06,18,11,53,18.80
2015,06,18,11,54,18.70
2015,06,18,11,55,18.60
2015,06,18,11,56,18.60
2015,06,18,11,57,18.50
2015,06,18,11,58,18.40
2015,06,18,11,59,18.40
2015,06,18,12,00,18.40
2015,06,18,12,01,18.30
2015,06,18,12,02,18.30
2015,06,18,12,03,18.30
2015,06,18,12,04,18.30
2015,06,18,12,05,18.30
2015,06,18,12,06,18.30
2015,06,18,12,07,18.30
2015,06,18,12,08,18.30
2015,06,18,12,09,18.40
2015,06,18,12,10,18.40
2015,06,18,12,11,18.30
2015,06,18,12,12,18.30
2015,06,18,12,13,18.30
2015,06,18,12,14,18.30
2015,06,18,12,15,18.30
2015,06,18,12,16,18.30
2015,06,18,12,17,18.30
2015,06,18,12,18,18.30
2015,06,18,12,19,18.20
2015,06,18,12,20,18.20
2015,06,18,12,21,18.20
2015,06,18,12,22,18.20
2015,06,18,12,23,18.20
2015,06,18,12,24,18.20
2015,06,18,12,25,18.10
2015,06,18,12,26,18.00
2015,06,18,12,27,17.90
2015,06,18,12,28,17.90
2015,06,18,12,29,17.80
2015,06,18,12,30,17.80
2015,06,18,12,31,17.70
2015,06,18,12,32,17.60
2015,06,18,12,33,17.60
2015,06,18,12,34,17.60
2015,06,18,12,35,17.60
2015,06,18,12,36,17.60
2015,06,18,12,37,17.60
2015,06,18,12,38,17.60
2015,06,18,12,39,17.60
2015,06,18,12,40,17.60
2015,06,18,12,41,17.60
2015,06,18,12,42,17.70
2015,06,18,12,43,17.70
2015,06,18,12,44,17.80
2015,06,18,12,45,17.80
2015,06,18,12,46,17.80
2015,06,18,12,47,17.80
2015,06,18,12,48,17.80
2015,06,18,12,49,17.80
2015,06,18,12,50,17.90
2015,06,18,12,51,17.90
2015,06,18,12,52,17.90
2015,06,18,12,53,17.90
2015,06,18,12,54,17.90
2015,06,18,12,55,17.90
2015,06,18,12,56,17.90
2015,06,18,12,57,17.90
2015,06,18,12,58,17.90
2015,06,18,12,59,17.90
2015,06,18,13,00,17.90
2015,06,18,13,01,17.90
2015,06,18,13,02,17.90
2015,06,18,13,03,17.90
2015,06,18,13,04,17.90
2015,06,18,13,05,18.00
2015,06,18,13,06,18.00
2015,06,18,13,07,17.90
2015,06,18,13,08,17.90
2015,06,18,13,09,17.90
2015,06,18,13,10,17.90
2015,06,18,13,11,17.90
2015,06,18,13,12,18.00
2015,06,18,13,13,18.00
2015,06,18,13,14,18.10
2015,06,18,13,15,18.10
2015,06,18,13,16,18.10
2015,06,18,13,17,18.20
2015,06,18,13,18,18.20
2015,06,18,13,19,18.20
2015,06,18,13,20,18.20
2015,06,18,13,21,18.20
2015,06,18,13,22,18.20
2015,06,18,13,23,18.30
2015,06,18,13,24,18.30
2015,06,18,13,25,18.30
2015,06,18,13,26,18.30
2015,06,18,13,27,18.30
2015,06,18,13,28,18.40
2015,06,18,13,29,18.40
2015,06,18,13,30,18.40
2015,06,18,13,31,18.40
2015,06,18,13,32,18.40
2015,06,18,13,33,18.40
2015,06,18,13,34,18.30
2015,06,18,13,35,18.30
2015,06,18,13,36,18.30
2015,06,18,13,37,18.40
2015,06,18,13,38,18.40
2015,06,18,13,39,18.40
2015,06,18,13,40,18.50
2015,06,18,13,41,18.60
2015,06,18,13,42,18.60
2015,06,18,13,43,18.70
2015,06,18,13,44,18.70
2015,06,18,13,45,18.80
2015,06,18,13,46,18.80
2015,06,18,13,47,18.90
2015,06,18,13,48,19.00
2015,06,18,13,49,19.00
2015,06,18,13,50,19.10
2015,06,18,13,51,19.10
2015,06,18,13,52,19.10
2015,06,18,13,53,19.20
2015,06,18,13,54,19.20
2015,06,18,13,55,19.20
2015,06,18,13,56,19.20
2015,06,18,13,57,19.20
2015,06,18,13,58,19.20
2015,06,18,13,59,19.20
2015,06,18,14,00,19.20
2015,06,18,14,01,19.20
2015,06,18,14,02,19.20
2015,06,18,14,03,19.20
2015,06,18,14,04,19.20
2015,06,18,14,05,19.20
2015,06,18,14,06,19.20
2015,06,18,14,07,19.20
2015,06,18,14,08,19.20
2015,06,18,14,09,19.30
2015,06,18,14,10,19.30
2015,06,18,14,11,19.30
2015,06,18,14,12,19.40
2015,06,18,14,13,19.40
2015,06,18,14,14,19.40
2015,06,18,14,15,19.40
2015,06,18,14,16,19.40
2015,06,18,14,17,19.40
2015,06,18,14,18,19.30
2015,06,18,14,19,19.30
2015,06,18,14,20,19.20
2015,06,18,14,21,19.10
2015,06,18,14,22,19.10
2015,06,18,14,23,19.00
2015,06,18,14,24,18.90
2015,06,18,14,25,18.90
2015,06,18,14,26,18.90
2015,06,18,14,27,19.00
2015,06,18,14,28,19.00
2015,06,18,14,29,19.10
2015,06,18,14,30,19.10
2015,06,18,14,31,19.10
2015,06,18,14,32,19.20
2015,06,18,14,33,19.20
2015,06,18,14,34,19.30
2015,06,18,14,35,19.30
2015,06,18,14,36,19.40
2015,06,18,14,37,19.40
2015,06,18,14,38,19.50
2015,06,18,14,39,19.60
2015,06,18,14,40,19.70
2015,06,18,14,41,19.70
2015,06,18,14,42,19.70
2015,06,18,14,43,19.70
2015,06,18,14,44,19.70
2015,06,18,14,45,19.70
2015,06,18,14,46,19.70
2015,06,18,14,47,19.70
2015,06,18,14,48,19.70
2015,06,18,14,49,19.70
2015,06,18,14,50,19.70
2015,06,18,14,51,19.70
2015,06,18,14,52,19.70
2015,06,18,14,53,19.60
2015,06,18,14,54,19.60
2015,06,18,14,55,19.60
2015,06,18,14,56,19.60
2015,06,18,14,57,19.60
2015,06,18,14,58,19.60
2015,06,18,14,59,19.60
2015,06,18,15,00,19.60
2015,06,18,15,01,19.60
2015,06,18,15,02,19.50
2015,06,18,15,03,19.60
2015,06,18,15,04,19.60
2015,06,18,15,05,19.60
2015,06,18,15,06,19.60
2015,06,18,15,07,19.60
2015,06,18,15,08,19.70
2015,06,18,15,09,19.70
2015,06,18,15,10,19.70
2015,06,18,15,11,19.70
2015,06,18,15,12,19.70
2015,06,18,15,13,19.70
2015,06,18,15,14,19.70
2015,06,18,15,15,19.80
2015,06,18,15,16,19.80
2015,06,18,15,17,19.80
2015,06,18,15,18,19.80
2015,06,18,15,19,19.90
2015,06,18,15,20,19.90
2015,06,18,15,21,19.90
2015,06,18,15,22,20.00
2015,06,18,15,23,20.00
2015,06,18,15,24,20.10
2015,06,18,15,25,20.10
2015,06,18,15,26,20.20
2015,06,18,15,27,20.30
2015,06,18,15,28,20.30
2015,06,18,15,29,20.40
2015,06,18,15,30,20.40
2015,06,18,15,31,20.40
2015,06,18,15,32,20.50
2015,06,18,15,33,20.50
2015,06,18,15,34,20.60
2015,06,18,15,35,20.60
2015,06,18,15,36,20.70
2015,06,18,15,37,20.70
2015,06,18,15,38,20.80
2015,06,18,15,39,20.80
2015,06,18,15,40,20.90
2015,06,18,15,41,20.90
2015,06,18,15,42,21.00
2015,06,18,15,43,21.10
2015,06,18,15,44,21.20
2015,06,18,15,45,21.20
2015,06,18,15,46,21.30
2015,06,18,15,47,21.30
2015,06,18,15,48,21.30
2015,06,18,15,49,21.30
2015,06,18,15,50,21.40
2015,06,18,15,51,21.40
2015,06,18,15,52,21.40
2015,06,18,15,53,21.40
2015,06,18,15,54,21.40
2015,06,18,15,55,21.40
2015,06,18,15,56,21.40
2015,06,18,15,57,21.50
2015,06,18,15,58,21.50
2015,06,18,15,59,21.50
2015,06,18,16,00,21.50
2015,06,18,16,01,21.50
2015,06,18,16,02,21.50
2015,06,18,16,03,21.50
2015,06,18,16,04,21.40
2015,06,18,16,05,21.40
2015,06,18,16,06,21.40
2015,06,18,16,07,21.40
2015,06,18,16,08,21.40
2015,06,18,16,09,21.50
2015,06,18,16,10,21.40
2015,06,18,16,11,21.40
2015,06,18,16,12,21.40
2015,06,18,16,13,21.40
2015,06,18,16,14,21.30
2015,06,18,16,15,21.30
2015,06,18,16,16,21.30
2015,06,18,16,17,21.30
2015,06,18,16,18,21.30
2015,06,18,16,19,21.30
2015,06,18,16,20,21.30
2015,06,18,16,21,21.30
2015,06,18,16,22,21.30
2015,06,18,16,23,21.30
2015,06,18,16,24,21.30
2015,06,18,16,25,21.20
2015,06,18,16,26,21.20
2015,06,18,16,27,21.20
2015,06,18,16,28,21.10
2015,06,18,16,29,21.10
2015,06,18,16,30,21.10
2015,06,18,16,31,21.10
2015,06,18,16,32,21.00
2015,06,18,16,33,21.00
2015,06,18,16,34,21.00
2015,06,18,16,35,20.90
2015,06,18,16,36,20.90
2015,06,18,16,37,20.90
2015,06,18,16,38,20.80
2015,06,18,16,39,20.80
2015,06,18,16,40,20.80
2015,06,18,16,41,20.80
2015,06,18,16,42,20.70
2015,06,18,16,43,20.70
2015,06,18,16,44,20.70
2015,06,18,16,45,20.60
2015,06,18,16,46,20.60
2015,06,18,16,47,20.50
2015,06,18,16,48,20.50
2015,06,18,16,49,20.40
2015,06,18,16,50,20.40
2015,06,18,16,51,20.30
2015,06,18,16,52,20.20
2015,06,18,16,53,20.00
2015,06,18,16,54,19.90
2015,06,18,16,55,19.80
2015,06,18,16,56,19.60
2015,06,18,16,57,19.50
2015,06,18,16,58,19.40
2015,06,18,16,59,19.30
2015,06,18,17,00,19.20
2015,06,18,17,01,19.10
2015,06,18,17,02,18.90
2015,06,18,17,03,18.80
2015,06,18,17,04,18.70
2015,06,18,17,05,18.60
2015,06,18,17,06,18.50
2015,06,18,17,07,18.40
2015,06,18,17,08,18.40
2015,06,18,17,09,18.30
2015,06,18,17,10,18.20
2015,06,18,17,11,18.20
2015,06,18,17,12,18.10
2015,06,18,17,13,18.10
2015,06,18,17,14,18.00
2015,06,18,17,15,18.00
2015,06,18,17,16,18.00
2015,06,18,17,17,17.90
2015,06,18,17,18,17.90
2015,06,18,17,19,17.80
2015,06,18,17,20,17.80
2015,06,18,17,21,17.70
2015,06,18,17,22,17.70